GW5323 Weather Reports


Display with metric or nautical units.
time (UTC)temp
F
wind
direction
speed
MPH
gust
MPH
rain 1hr
in
rain 24hr
in
rain mn
in
humidity
%
barometer
mb
20260504041851 32 15 0.0 0.0 0.00 0.00 0.00 94 1016.8
20260504041348 33 117 1.0 2.0 0.00 0.00 0.00 94 1016.8
20260504040844 33 117 1.0 2.0 0.00 0.00 0.00 94 1016.7
20260504040342 33 117 1.0 2.0 0.00 0.00 0.00 94 1016.9
20260504035837 33 117 1.0 2.0 0.00 0.00 0.00 94 1016.9
20260504035336 34 315 0.0 0.0 0.00 0.00 0.00 94 1016.8
20260504034832 33 212 0.0 1.0 0.00 0.00 0.00 93 1016.7
20260504034330 33 193 0.0 0.0 0.00 0.00 0.00 93 1016.7
20260504033827 34 104 0.0 0.0 0.00 0.00 0.00 93 1016.6
20260504033325 34 221 0.0 0.0 0.00 0.00 0.00 93 1016.7
20260504032821 34 296 1.0 2.0 0.00 0.00 0.00 92 1016.9
20260504032318 35 339 0.0 0.0 0.00 0.00 0.00 92 1016.9
20260504031815 35 339 0.0 0.0 0.00 0.00 0.00 92 1016.8
20260504031312 35 340 0.0 1.0 0.00 0.00 0.00 90 1016.6
20260504030808 35 340 0.0 1.0 0.00 0.00 0.00 90 1016.8
20260504030306 35 340 0.0 1.0 0.00 0.00 0.00 90 1016.6
20260504025801 36 260 0.0 1.0 0.00 0.00 0.00 90 1016.9
20260504025259 36 260 0.0 1.0 0.00 0.00 0.00 90 1016.7
20260504024755 36 260 0.0 1.0 0.00 0.00 0.00 90 1016.7
20260504024252 36 326 0.0 2.0 0.00 0.00 0.00 89 1016.9
20260504023749 37 269 0.0 0.0 0.00 0.00 0.00 83 1016.7
20260504023245 37 269 0.0 0.0 0.00 0.00 0.00 83 1016.7
20260504022741 37 269 0.0 0.0 0.00 0.00 0.00 83 1016.8
20260504022237 37 269 0.0 0.0 0.00 0.00 0.00 83 1016.9
20260504021735 37 269 0.0 0.0 0.00 0.00 0.00 83 1016.9
20260504021232 37 269 0.0 0.0 0.00 0.00 0.00 83 1016.7
20260504020729 38 135 0.0 0.0 0.00 0.00 0.00 82 1016.7
20260504020226 38 135 0.0 0.0 0.00 0.00 0.00 82 1016.7
20260504015722 39 293 0.0 0.0 0.00 0.00 0.00 79 1016.6
20260504015218 39 293 0.0 0.0 0.00 0.00 0.00 78 1016.6
20260504014714 40 291 0.0 0.0 0.00 0.00 0.00 77 1016.5
20260504014212 41 256 0.0 0.0 0.00 0.00 0.00 76 1016.5
20260504013709 41 252 0.0 0.0 0.00 0.00 0.00 74 1016.4
20260504013206 41 252 0.0 0.0 0.00 0.00 0.00 74 1016.5
20260504012703 41 212 0.0 0.0 0.00 0.00 0.00 73 1016.6
20260504012201 42 130 0.0 1.0 0.00 0.00 0.00 70 1016.5
20260504011657 43 245 0.0 0.0 0.00 0.00 0.00 67 1016.4
20260504011153 44 240 0.0 0.0 0.00 0.00 0.00 67 1016.3
20260504010649 46 289 0.0 0.0 0.00 0.00 0.00 62 1016.3
20260504010145 46 289 0.0 0.0 0.00 0.00 0.00 62 1016.2
20260504005643 47 30 0.0 0.0 0.00 0.00 0.00 57 1016.4
20260504005139 47 30 0.0 0.0 0.00 0.00 0.00 57 1016.4
20260504004637 49 168 0.0 2.0 0.00 0.00 0.00 52 1016.2
20260504004134 49 168 0.0 2.0 0.00 0.00 0.00 52 1016.2
20260504003630 51 354 0.0 1.0 0.00 0.00 0.00 48 1016.2
20260504003127 51 354 0.0 1.0 0.00 0.00 0.00 48 1016.1
20260504002624 51 40 0.0 5.0 0.00 0.00 0.00 48 1016.3
20260504002121 51 202 3.0 3.0 0.00 0.00 0.00 48 1016.1
20260504001619 51 98 0.0 3.0 0.00 0.00 0.00 47 1016.0
20260504001115 51 348 0.0 2.0 0.00 0.00 0.00 47 1016.0
20260504000613 52 96 2.0 4.0 0.00 0.00 0.00 45 1015.9
20260504000110 53 70 5.0 5.0 0.00 0.00 0.00 45 1015.9
20260503235608 54 95 1.0 9.0 0.00 0.00 0.00 43 1016.0
20260503235104 54 41 6.0 9.0 0.00 0.00 0.00 42 1015.9
20260503234602 55 26 4.0 11.0 0.00 0.00 0.00 41 1015.8
20260503234100 55 61 3.0 7.0 0.00 0.00 0.00 43 1016.0
20260503233556 55 63 4.0 4.0 0.00 0.00 0.00 42 1016.0
20260503233052 56 28 3.0 7.0 0.00 0.00 0.00 43 1016.0
20260503232549 56 63 3.0 9.0 0.00 0.00 0.00 41 1016.0
20260503232047 56 61 2.0 5.0 0.00 0.00 0.00 41 1015.8
20260503231544 57 22 5.0 6.0 0.00 0.00 0.00 40 1015.9
20260503231041 57 314 6.0 10.0 0.00 0.00 0.00 40 1015.9
20260503230537 57 51 3.0 9.0 0.00 0.00 0.00 40 1015.8
20260503230035 57 61 4.0 11.0 0.00 0.00 0.00 39 1015.9
20260503225532 57 36 6.0 10.0 0.00 0.00 0.00 40 1016.0
20260503225027 57 39 3.0 10.0 0.00 0.00 0.00 40 1015.6
20260503224525 57 60 7.0 10.0 0.00 0.00 0.00 38 1015.9
20260503224022 57 53 4.0 12.0 0.00 0.00 0.00 40 1015.8
20260503223520 57 107 11.0 13.0 0.00 0.00 0.00 39 1015.9
20260503223015 58 36 7.0 13.0 0.00 0.00 0.00 37 1015.9
20260503222514 58 145 4.0 11.0 0.00 0.00 0.00 41 1015.9
20260503222012 57 87 2.0 6.0 0.00 0.00 0.00 39 1015.9
20260503221510 57 94 6.0 12.0 0.00 0.00 0.00 40 1015.8
20260503221007 57 29 4.0 6.0 0.00 0.00 0.00 40 1015.8
20260503220503 56 33 7.0 14.0 0.00 0.00 0.00 39 1016.0
20260503215959 56 333 6.0 8.0 0.00 0.00 0.00 40 1016.1
20260503215457 58 30 6.0 11.0 0.00 0.00 0.00 40 1016.2
20260503214954 56 36 7.0 9.0 0.00 0.00 0.00 42 1016.1
20260503214452 56 39 7.0 9.0 0.00 0.00 0.00 40 1016.1
20260503213949 55 53 6.0 9.0 0.00 0.00 0.00 40 1015.9
20260503213447 56 55 6.0 10.0 0.00 0.00 0.00 40 1015.8
20260503212943 56 58 7.0 11.0 0.00 0.00 0.00 41 1016.0
20260503212440 56 46 5.0 9.0 0.00 0.00 0.00 41 1015.9
20260503211937 56 69 6.0 12.0 0.00 0.00 0.00 40 1015.8
20260503211435 56 83 5.0 10.0 0.00 0.00 0.00 40 1015.9
20260503210930 57 87 6.0 11.0 0.00 0.00 0.00 39 1016.1
20260503210427 57 74 9.0 13.0 0.00 0.00 0.00 41 1015.9
20260503205922 57 86 6.0 10.0 0.00 0.00 0.00 40 1015.8
20260503205419 58 62 6.0 8.0 0.00 0.00 0.00 45 1015.8
20260503204915 55 95 8.0 10.0 0.00 0.00 0.00 40 1016.0
20260503204413 55 64 10.0 12.0 0.00 0.00 0.00 39 1016.1
20260503203910 55 60 8.0 12.0 0.00 0.00 0.00 39 1016.1
20260503203407 56 40 7.0 10.0 0.00 0.00 0.00 38 1016.1
20260503202904 58 35 11.0 12.0 0.00 0.00 0.00 38 1016.1
20260503202402 58 22 5.0 9.0 0.00 0.00 0.00 41 1016.3
20260503201900 55 57 7.0 11.0 0.00 0.00 0.00 40 1016.2
20260503201357 57 333 5.0 11.0 0.00 0.00 0.00 41 1016.1
20260503200855 57 48 8.0 16.0 0.00 0.00 0.00 38 1016.3
20260503200350 56 97 4.0 10.0 0.00 0.00 0.00 43 1016.3
20260503195848 55 115 8.0 9.0 0.00 0.00 0.00 40 1016.4
20260503195344 55 41 10.0 15.0 0.00 0.00 0.00 41 1016.3
20260503194841 56 42 7.0 11.0 0.00 0.00 0.00 40 1016.5
20260503194337 57 73 7.0 15.0 0.00 0.00 0.00 43 1016.5
20260503193834 55 58 11.0 15.0 0.00 0.00 0.00 39 1016.5
20260503193330 57 29 5.0 16.0 0.00 0.00 0.00 39 1016.5
20260503192826 57 54 6.0 10.0 0.00 0.00 0.00 42 1016.7
20260503192321 55 46 4.0 10.0 0.00 0.00 0.00 40 1016.7
20260503191818 56 59 9.0 15.0 0.00 0.00 0.00 39 1016.8
20260503191315 55 21 5.0 10.0 0.00 0.00 0.00 44 1016.8
20260503190812 55 34 7.0 15.0 0.00 0.00 0.00 41 1016.9
20260503190309 55 102 7.0 15.0 0.00 0.00 0.00 42 1017.1
20260503185806 56 41 11.0 16.0 0.00 0.00 0.00 41 1016.7
20260503185301 55 24 7.0 13.0 0.00 0.00 0.00 40 1017.0
20260503184801 57 247 2.0 10.0 0.00 0.00 0.00 44 1016.9
20260503184258 56 73 9.0 19.0 0.00 0.00 0.00 41 1017.0
20260503183753 55 67 9.0 15.0 0.00 0.00 0.00 41 1017.3
20260503183252 54 47 8.0 14.0 0.00 0.00 0.00 42 1017.2
20260503182749 54 42 4.0 19.0 0.00 0.00 0.00 45 1017.1
20260503182248 56 61 4.0 7.0 0.00 0.00 0.00 50 1017.1
20260503181744 55 29 8.0 9.0 0.00 0.00 0.00 40 1017.3
20260503181241 54 13 4.0 19.0 0.00 0.00 0.00 47 1017.2
20260503180737 54 28 10.0 18.0 0.00 0.00 0.00 43 1017.4
20260503180236 54 116 13.0 13.0 0.00 0.00 0.00 42 1017.3
20260503175732 53 32 6.0 12.0 0.00 0.00 0.00 42 1017.4
20260503175230 55 48 10.0 12.0 0.00 0.00 0.00 42 1017.3
20260503174726 53 35 3.0 14.0 0.00 0.00 0.00 45 1017.6
20260503174224 53 43 8.0 10.0 0.00 0.00 0.00 44 1017.6
20260503173724 54 36 5.0 12.0 0.00 0.00 0.00 44 1017.3
20260503173221 55 61 8.0 9.0 0.00 0.00 0.00 44 1017.6
20260503172718 52 52 6.0 11.0 0.00 0.00 0.00 43 1017.6
20260503172215 53 55 10.0 14.0 0.00 0.00 0.00 43 1017.4
20260503171711 53 63 6.0 12.0 0.00 0.00 0.00 44 1017.6
20260503171208 54 109 13.0 15.0 0.00 0.00 0.00 45 1017.6
20260503170705 53 69 6.0 10.0 0.00 0.00 0.00 44 1017.6
20260503170202 54 85 9.0 12.0 0.00 0.00 0.00 45 1017.7
20260503160124 50 102 8.0 15.0 0.00 0.00 0.00 43 1018.3
20260503150553 49 113 3.0 12.0 0.00 0.00 0.00 49 1018.9
20260503130943 43 99 6.0 9.0 0.00 0.00 0.00 64 1019.2
20260503130441 42 79 5.0 8.0 0.00 0.00 0.00 64 1019.2
20260503110331 34 56 2.0 4.0 0.00 0.00 0.00 78 1018.5
20260503100257 32 247 1.0 3.0 0.00 0.00 0.00 82 1017.9
20260503090217 34 345 1.0 3.0 0.00 0.00 0.00 76 1017.9
20260503081144 34 222 1.0 2.0 0.00 0.00 0.00 74 1017.8
20260503080640 35 105 2.0 3.0 0.00 0.00 0.00 74 1017.6
20260503080137 34 302 2.0 2.0 0.00 0.00 0.00 74 1017.5
20260503072614 35 29 1.0 2.0 0.00 0.00 0.00 73 1017.4
20260503072111 35 103 0.0 5.0 0.00 0.00 0.00 72 1017.4
20260503071608 35 61 2.0 2.0 0.00 0.00 0.00 72 1017.5
20260503071104 35 313 2.0 3.0 0.00 0.00 0.00 72 1017.3
20260503070601 35 144 4.0 4.0 0.00 0.00 0.00 73 1017.2
20260503055020 36 29 1.0 2.0 0.00 0.00 0.00 69 1017.4
20260503054516 36 103 2.0 3.0 0.00 0.00 0.00 69 1017.4
20260503054014 37 147 0.0 2.0 0.00 0.00 0.00 68 1017.4
20260503053512 37 72 3.0 4.0 0.00 0.00 0.00 67 1017.5
20260503053009 38 19 4.0 6.0 0.00 0.00 0.00 65 1017.5
20260503052505 38 110 1.0 4.0 0.00 0.00 0.00 66 1017.5
20260503052002 38 62 6.0 7.0 0.00 0.00 0.00 65 1017.5
20260503051457 38 77 1.0 4.0 0.00 0.00 0.00 68 1017.6
20260503050956 38 21 2.0 2.0 0.00 0.00 0.00 67 1017.5
20260503050451 39 92 2.0 4.0 0.00 0.00 0.00 66 1017.5
20260503045949 39 72 3.0 5.0 0.00 0.00 0.00 67 1017.7
20260503045446 39 66 3.0 6.0 0.00 0.00 0.00 67 1017.5
20260503044942 39 36 3.0 4.0 0.00 0.00 0.00 69 1017.6
20260503044439 39 40 3.0 6.0 0.00 0.00 0.00 67 1017.6
20260503043937 39 47 3.0 6.0 0.00 0.00 0.00 65 1017.5
20260503043433 39 95 4.0 6.0 0.00 0.00 0.00 66 1017.5
20260503042929 39 112 5.0 10.0 0.00 0.00 0.00 63 1017.6
20260503042426 39 103 5.0 7.0 0.00 0.00 0.00 63 1017.6